WGS F8 (USA 272)

Last updated on Sat Jun 14 2025 00:02:46 GMT+0000 (Coordinated Universal Time)

1 41879U 16075A 25163.84669832 -.00000187 00000+0 00000+0 0 9996 2 41879 0.0308 53.8277 0000334 111.5044 190.7182 1.00266256 31112
UTC large
Height (km)
Speed (km/s)
/
Latitude / Longitude
Inclination (degrees)
Orbital Period (minutes)
Azimuth
Elevation
Range (km)
Doppler Factor

Next 0 passes for location: London (51.5072 / 0.1276)

Sorry there are no passes over London.